This demonstration page uses our WeatherBlox Daily Observations layout. Learn more.

Left ArrowRight Arrow

39.12711, -84.51439

Hourly Observations for December 27, 2018

Temp ( °F °C ) Dew Point ( °F °C ) Humidity (%) Winds ( mph kmh ) Pressure ( in mb ) Visibility ( mi km ) Precip ( " mm )
12:53 am 00:53 Clear 33 0.6 30 -1.1 89 89 Calm 30.35 1028 10 16 0.00 0.00
1:53 am 01:53 Clear 33 0.6 31 -0.6 92 92 Calm 30.35 1028 10 16 0.00 0.00
2:53 am 02:53 Clear 34 1.1 31 -0.6 89 89 N 3 6 30.33 1027 10 16 0.00 0.00
3:53 am 03:53 Clear 33 0.6 31 -0.6 92 92 Calm 30.31 1026 10 16 0.00 0.00
4:53 am 04:53 Clear 33 0.6 31 -0.6 92 92 Calm 30.28 1025 10 16 0.00 0.00
5:53 am 05:53 Mostly Clear 34 1.1 32 0 92 92 Calm 30.27 1025 9 14 0.00 0.00
6:53 am 06:53 Clear 34 1.1 31 -0.6 89 89 ENE 3 6 30.25 1025 10 16 0.00 0.00
7:53 am 07:53 Clear 36 2.2 31 -0.6 82 82 NE 6 9 30.23 1024 10 16 0.00 0.00
8:53 am 08:53 Sunny 39 3.9 34 1.1 82 82 N 3 6 30.24 1024 10 16 0.00 0.00
9:53 am 09:53 Mostly Cloudy 44 6.7 34 1.1 68 68 NE 5 7 30.22 1023 10 16 0.00 0.00
10:53 am 10:53 Partly Cloudy 48 8.9 32 0 54 54 E 3 6 30.18 1022 10 16 0.00 0.00
11:53 am 11:53 Cloudy with Light Rain 46 7.8 37 2.8 71 71 Calm 30.13 1020 10 16 0.00 0.03
12:53 pm 12:53 Cloudy 47 8.3 38 3.3 71 71 NE 5 7 30.08 1019 10 16 0.02 0.51
1:53 pm 13:53 Cloudy with Light Rain 44 6.7 40 4.4 85 85 ENE 5 7 30.07 1018 7 11 0.04 1.02
2:53 pm 14:53 Cloudy with Light Rain 47 8.3 41 5 80 80 Calm 30.05 1018 10 16 0.02 0.51
3:53 pm 15:53 Cloudy 48 8.9 41 5 77 77 SSE 3 6 30.04 1017 10 16 0.01 0.25
4:53 pm 16:53 Mostly Cloudy 49 9.4 40 4.4 71 71 VRB 5 7 30.00 1016 10 16 0.00 0.03
5:53 pm 17:53 Cloudy with Light Rain 49 9.4 41 5 74 74 SE 6 9 29.97 1015 10 16 0.00 0.03
6:53 pm 18:53 Cloudy with Rain 48 8.9 44 6.7 86 86 S 6 9 30.03 1017 3 5 0.08 2.03
7:02 pm 19:02 Cloudy with Rain 47 8.3 44 6.7 90 90 SE 7 11 30.00 1016 2 3 0.01 0.25
7:53 pm 19:53 Cloudy with Light Rain 49 9.4 45 7.2 86 86 SSE 17 28 29.92 1013 10 16 0.05 1.27
8:53 pm 20:53 Clear 52 11.1 48 8.9 86 86 S 14 22 29.88 1012 10 16 0.01 0.25
9:53 pm 21:53 Mostly Clear 52 11.1 48 8.9 86 86 SSW 8 13 29.88 1012 10 16 0.00 0.00
10:53 pm 22:53 Cloudy 52 11.1 49 9.4 89 89 WSW 6 9 29.86 1011 10 16 0.00 0.00
11:53 pm 23:53 Cloudy 54 12.2 51 10.6 90 90 SSW 6 9 29.86 1011 10 16 0.00 0.00

Powered by AerisWeather